Location: ??????
(56.0120°N, 39.1740°E)
Time: 18:30:26
(UTC+00:00)

Cosmos 2346 Rocket - Pass Details

Date: 14 April 2026
Orbit: 936 x 978 km, 82.9° (Epoch: 19 May)

Event Time Altitude Azimuth Distance (km) Brightness Sun altitude
Rises 19:30:02 0° 348° (NNW) 3,625 8.8 -20.3°
Reaches altitude 10° 19:32:31 10° 349° (N) 2,681 7.8 -20.4°
Maximum altitude 19:38:40 82° 77° (ENE) 971 4.4 -20.8°
Enters shadow 19:41:08 39° 161° (SSE) 1,396 4.8 -21.0°
